Tracking 30995 objects as of 6-Jul-2025
HD Live streaming from Space Station
objects crossing your sky now

COSMOS 637

Track COSMOS 637 now!
COSMOS 637 is classified as:


NORAD ID: 7229
Int'l Code: 1974-017A
Perigee: 35,489.4 km
Apogee: 35,811.9 km
Inclination: 1.7 °
Period: 1,428.8 minutes
Semi major axis: 42021 km
RCS: 2.5118 m2 (large)
Launch date: March 26, 1974
Source: Commonwealth of Independent States (former USSR) (CIS)
Launch site: TYURATAM MISSILE AND SPACE COMPLEX (TTMTR)
Your satellite tracking list
OBJECT N
Track 1 satellite(s)




NASA's NSSDC Master Catalog

Two Line Element Set (TLE):
1  7229U 74017A   25187.86985398 -.00000329  00000-0  00000+0 0  9992
2  7229   1.7072 264.4326 0038375  60.6786  14.3674  1.00784393118713
Source of the keplerian elements: AFSPC